Location: Choisy
(48.7685°N, 2.4187°E)
Time: 03:39:38
(UTC+00:00)

Cosmos 2278 Rocket - Pass Details

Date: 24 October 2021
Orbit: 841 x 845 km, 71.0° (Epoch: 05 December)

Event Time Altitude Azimuth Distance (km) Brightness Sun altitude
Rises 19:27:25 0° 334° (NNW) 3,416 5.9 -27.5°
Reaches altitude 10° 19:29:59 10° 340° (NNW) 2,477 5.0 -27.9°
Enters shadow 19:33:56 38° 12° (NNE) 1,267 3.0 -28.5°
